Location: Stony Creek
(40.9500°S, 175.8500°E)
Time: 10:06:10
(UTC+00:00)

Cosmos 1378 Rocket - Pass Details

Date: 15 May 2026
Orbit: 593 x 620 km, 82.5° (Epoch: 10 June)

Event Time Altitude Azimuth Distance (km) Brightness Sun altitude
Exits shadow 17:02:57 13° 176° (S) 1,807 5.9 -25.4°
Maximum altitude 17:06:46 52° 101° (E) 784 4.3 -24.6°
Drops below altitude 10° 17:11:06 10° 24° (NNE) 1,995 6.5 -23.8°
Sets 17:13:21 0° 18° (NNE) 2,892 7.3 -23.4°
